﻿date_time,site_id,latitude,longitude,notes,water_temperature,water_temperature_units,,water_hub_qa_qc,,,,,,,,,,,
2022-08-31 13:13:25,MCL003,49.517207,-114.680967,,15.49,degrees Celsius,,,,,,,,,,,,,
2022-08-31 14:13:25,MCL003,49.517207,-114.680967,,16.28,degrees Celsius,,,,,,,,,,,,,
2022-08-31 15:13:25,MCL003,49.517207,-114.680967,,16.51,degrees Celsius,,,,,,,,,,,,,
2022-08-31 16:13:25,MCL003,49.517207,-114.680967,,16.14,degrees Celsius,,,,,,,,,,,,,
2022-08-31 17:13:25,MCL003,49.517207,-114.680967,,15.71,degrees Celsius,,,,,,,,,,,,,
2022-08-31 18:13:25,MCL003,49.517207,-114.680967,,15.21,degrees Celsius,,,,,,,,,,,,,
2022-08-31 19:13:25,MCL003,49.517207,-114.680967,,14.7,degrees Celsius,,,,,,,,,,,,,
2022-08-31 20:13:25,MCL003,49.517207,-114.680967,,14.15,degrees Celsius,,,,,,,,,,,,,
2022-08-31 21:13:25,MCL003,49.517207,-114.680967,,13.66,degrees Celsius,,,,,,,,,,,,,
2022-08-31 22:13:25,MCL003,49.517207,-114.680967,,13.31,degrees Celsius,,,,,,,,,,,,,
2022-08-31 23:13:25,MCL003,49.517207,-114.680967,,13.2,degrees Celsius,,,,,,,,,,,,,
2022-09-01 0:13:25,MCL003,49.517207,-114.680967,,13.01,degrees Celsius,,,,,,,,,,,,,
2022-09-01 1:13:25,MCL003,49.517207,-114.680967,,12.78,degrees Celsius,,,,,,,,,,,,,
2022-09-01 2:13:25,MCL003,49.517207,-114.680967,,12.49,degrees Celsius,,,,,,,,,,,,,
2022-09-01 3:13:25,MCL003,49.517207,-114.680967,,12.18,degrees Celsius,,,,,,,,,,,,,
2022-09-01 4:13:25,MCL003,49.517207,-114.680967,,11.92,degrees Celsius,,,,,,,,,,,,,
2022-09-01 5:13:25,MCL003,49.517207,-114.680967,,11.67,degrees Celsius,,,,,,,,,,,,,
2022-09-01 6:13:25,MCL003,49.517207,-114.680967,,11.43,degrees Celsius,,,,,,,,,,,,,
2022-09-01 7:13:25,MCL003,49.517207,-114.680967,,11.33,degrees Celsius,,,,,,,,,,,,,
2022-09-01 8:13:25,MCL003,49.517207,-114.680967,,11.42,degrees Celsius,,,,,,,,,,,,,
2022-09-01 9:13:25,MCL003,49.517207,-114.680967,,11.88,degrees Celsius,,,,,,,,,,,,,
2022-09-01 10:13:25,MCL003,49.517207,-114.680967,,12.52,degrees Celsius,,,,,,,,,,,,,
2022-09-01 11:13:25,MCL003,49.517207,-114.680967,,13.51,degrees Celsius,,,,,,,,,,,,,
2022-09-01 12:13:25,MCL003,49.517207,-114.680967,,14.63,degrees Celsius,,,,,,,,,,,,,
2022-09-01 13:13:25,MCL003,49.517207,-114.680967,,15.73,degrees Celsius,,,,,,,,,,,,,
2022-09-01 14:13:25,MCL003,49.517207,-114.680967,,16.34,degrees Celsius,,,,,,,,,,,,,
2022-09-01 15:13:25,MCL003,49.517207,-114.680967,,16.41,degrees Celsius,,,,,,,,,,,,,
2022-09-01 16:13:25,MCL003,49.517207,-114.680967,,16.11,degrees Celsius,,,,,,,,,,,,,
2022-09-01 17:13:25,MCL003,49.517207,-114.680967,,15.69,degrees Celsius,,,,,,,,,,,,,
2022-09-01 18:13:25,MCL003,49.517207,-114.680967,,15.24,degrees Celsius,,,,,,,,,,,,,
2022-09-01 19:13:25,MCL003,49.517207,-114.680967,,14.7,degrees Celsius,,,,,,,,,,,,,
2022-09-01 20:13:25,MCL003,49.517207,-114.680967,,14.14,degrees Celsius,,,,,,,,,,,,,
2022-09-01 21:13:25,MCL003,49.517207,-114.680967,,13.64,degrees Celsius,,,,,,,,,,,,,
2022-09-01 22:13:25,MCL003,49.517207,-114.680967,,13.21,degrees Celsius,,,,,,,,,,,,,
2022-09-01 23:13:25,MCL003,49.517207,-114.680967,,12.82,degrees Celsius,,,,,,,,,,,,,
2022-09-02 00:13:25,MCL003,49.517207,-114.680967,,12.47,degrees Celsius,,,,,,,,,,,,,
2022-09-02 01:13:25,MCL003,49.517207,-114.680967,,12.16,degrees Celsius,,,,,,,,,,,,,
2022-09-02 02:13:25,MCL003,49.517207,-114.680967,,11.89,degrees Celsius,,,,,,,,,,,,,
2022-09-02 03:13:25,MCL003,49.517207,-114.680967,,11.62,degrees Celsius,,,,,,,,,,,,,
2022-09-02 04:13:25,MCL003,49.517207,-114.680967,,11.34,degrees Celsius,,,,,,,,,,,,,
2022-09-02 05:13:25,MCL003,49.517207,-114.680967,,11.1,degrees Celsius,,,,,,,,,,,,,
2022-09-02 06:13:25,MCL003,49.517207,-114.680967,,10.85,degrees Celsius,,,,,,,,,,,,,
2022-09-02 07:13:25,MCL003,49.517207,-114.680967,,10.68,degrees Celsius,,,,,,,,,,,,,
2022-09-02 08:13:25,MCL003,49.517207,-114.680967,,10.73,degrees Celsius,,,,,,,,,,,,,
2022-09-02 09:13:25,MCL003,49.517207,-114.680967,,11.23,degrees Celsius,,,,,,,,,,,,,
2022-09-02 10:13:25,MCL003,49.517207,-114.680967,,11.97,degrees Celsius,,,,,,,,,,,,,
2022-09-02 11:13:25,MCL003,49.517207,-114.680967,,13.05,degrees Celsius,,,,,,,,,,,,,
2022-09-02 12:13:25,MCL003,49.517207,-114.680967,,14.34,degrees Celsius,,,,,,,,,,,,,
2022-09-02 13:13:25,MCL003,49.517207,-114.680967,,15.49,degrees Celsius,,,,,,,,,,,,,
2022-09-02 14:13:25,MCL003,49.517207,-114.680967,,16.05,degrees Celsius,,,,,,,,,,,,,
2022-09-02 15:13:25,MCL003,49.517207,-114.680967,,16.1,degrees Celsius,,,,,,,,,,,,,
2022-09-02 16:13:25,MCL003,49.517207,-114.680967,,15.95,degrees Celsius,,,,,,,,,,,,,
2022-09-02 17:13:25,MCL003,49.517207,-114.680967,,15.57,degrees Celsius,,,,,,,,,,,,,
2022-09-02 18:13:25,MCL003,49.517207,-114.680967,,15.15,degrees Celsius,,,,,,,,,,,,,
2022-09-02 19:13:25,MCL003,49.517207,-114.680967,,14.59,degrees Celsius,,,,,,,,,,,,,
2022-09-02 20:13:25,MCL003,49.517207,-114.680967,,14.06,degrees Celsius,,,,,,,,,,,,,
2022-09-02 21:13:25,MCL003,49.517207,-114.680967,,13.56,degrees Celsius,,,,,,,,,,,,,
2022-09-02 22:13:25,MCL003,49.517207,-114.680967,,13.09,degrees Celsius,,,,,,,,,,,,,
2022-09-02 23:13:25,MCL003,49.517207,-114.680967,,12.67,degrees Celsius,,,,,,,,,,,,,
2022-09-03 00:13:25,MCL003,49.517207,-114.680967,,12.28,degrees Celsius,,,,,,,,,,,,,
2022-09-03 01:13:25,MCL003,49.517207,-114.680967,,11.91,degrees Celsius,,,,,,,,,,,,,
2022-09-03 02:13:25,MCL003,49.517207,-114.680967,,11.61,degrees Celsius,,,,,,,,,,,,,
2022-09-03 03:13:25,MCL003,49.517207,-114.680967,,11.34,degrees Celsius,,,,,,,,,,,,,
2022-09-03 04:13:25,MCL003,49.517207,-114.680967,,11.09,degrees Celsius,,,,,,,,,,,,,
2022-09-03 05:13:25,MCL003,49.517207,-114.680967,,10.86,degrees Celsius,,,,,,,,,,,,,
2022-09-03 06:13:25,MCL003,49.517207,-114.680967,,10.67,degrees Celsius,,,,,,,,,,,,,
2022-09-03 07:13:25,MCL003,49.517207,-114.680967,,10.57,degrees Celsius,,,,,,,,,,,,,
2022-09-03 08:13:25,MCL003,49.517207,-114.680967,,10.67,degrees Celsius,,,,,,,,,,,,,
2022-09-03 09:13:25,MCL003,49.517207,-114.680967,,11.07,degrees Celsius,,,,,,,,,,,,,
2022-09-03 10:13:25,MCL003,49.517207,-114.680967,,11.75,degrees Celsius,,,,,,,,,,,,,
2022-09-03 11:13:25,MCL003,49.517207,-114.680967,,12.74,degrees Celsius,,,,,,,,,,,,,
2022-09-03 12:13:25,MCL003,49.517207,-114.680967,,13.91,degrees Celsius,,,,,,,,,,,,,
2022-09-03 13:13:25,MCL003,49.517207,-114.680967,,15.02,degrees Celsius,,,,,,,,,,,,,
2022-09-03 14:13:25,MCL003,49.517207,-114.680967,,15.65,degrees Celsius,,,,,,,,,,,,,
2022-09-03 15:13:25,MCL003,49.517207,-114.680967,,15.89,degrees Celsius,,,,,,,,,,,,,
2022-09-03 16:13:25,MCL003,49.517207,-114.680967,,15.68,degrees Celsius,,,,,,,,,,,,,
2022-09-03 17:13:25,MCL003,49.517207,-114.680967,,15.34,degrees Celsius,,,,,,,,,,,,,
2022-09-03 18:13:25,MCL003,49.517207,-114.680967,,14.94,degrees Celsius,,,,,,,,,,,,,
2022-09-03 19:13:25,MCL003,49.517207,-114.680967,,14.48,degrees Celsius,,,,,,,,,,,,,
2022-09-03 20:13:25,MCL003,49.517207,-114.680967,,14.13,degrees Celsius,,,,,,,,,,,,,
2022-09-03 21:13:25,MCL003,49.517207,-114.680967,,13.71,degrees Celsius,,,,,,,,,,,,,
2022-09-03 22:13:25,MCL003,49.517207,-114.680967,,13.31,degrees Celsius,,,,,,,,,,,,,
2022-09-03 23:13:25,MCL003,49.517207,-114.680967,,12.9,degrees Celsius,,,,,,,,,,,,,
2022-09-04 00:13:25,MCL003,49.517207,-114.680967,,12.55,degrees Celsius,,,,,,,,,,,,,
2022-09-04 01:13:25,MCL003,49.517207,-114.680967,,12.32,degrees Celsius,,,,,,,,,,,,,
2022-09-04 02:13:25,MCL003,49.517207,-114.680967,,12.04,degrees Celsius,,,,,,,,,,,,,
2022-09-04 03:13:25,MCL003,49.517207,-114.680967,,11.88,degrees Celsius,,,,,,,,,,,,,
2022-09-04 04:13:25,MCL003,49.517207,-114.680967,,11.73,degrees Celsius,,,,,,,,,,,,,
2022-09-04 05:13:25,MCL003,49.517207,-114.680967,,11.6,degrees Celsius,,,,,,,,,,,,,
2022-09-04 06:13:25,MCL003,49.517207,-114.680967,,11.53,degrees Celsius,,,,,,,,,,,,,
2022-09-04 07:13:25,MCL003,49.517207,-114.680967,,11.46,degrees Celsius,,,,,,,,,,,,,
2022-09-04 08:13:25,MCL003,49.517207,-114.680967,,11.58,degrees Celsius,,,,,,,,,,,,,
2022-09-04 09:13:25,MCL003,49.517207,-114.680967,,11.91,degrees Celsius,,,,,,,,,,,,,
2022-09-04 10:13:25,MCL003,49.517207,-114.680967,,12.52,degrees Celsius,,,,,,,,,,,,,
2022-09-04 11:13:25,MCL003,49.517207,-114.680967,,13.38,degrees Celsius,,,,,,,,,,,,,
2022-09-04 12:13:25,MCL003,49.517207,-114.680967,,14.4,degrees Celsius,,,,,,,,,,,,,
2022-09-04 13:13:25,MCL003,49.517207,-114.680967,,15.31,degrees Celsius,,,,,,,,,,,,,
2022-09-04 14:13:25,MCL003,49.517207,-114.680967,,15.88,degrees Celsius,,,,,,,,,,,,,
2022-09-04 15:13:25,MCL003,49.517207,-114.680967,,15.88,degrees Celsius,,,,,,,,,,,,,
2022-09-04 16:13:25,MCL003,49.517207,-114.680967,,15.54,degrees Celsius,,,,,,,,,,,,,
2022-09-04 17:13:25,MCL003,49.517207,-114.680967,,15.13,degrees Celsius,,,,,,,,,,,,,
2022-09-04 18:13:25,MCL003,49.517207,-114.680967,,14.72,degrees Celsius,,,,,,,,,,,,,
2022-09-04 19:13:25,MCL003,49.517207,-114.680967,,14.19,degrees Celsius,,,,,,,,,,,,,
2022-09-04 20:13:25,MCL003,49.517207,-114.680967,,13.67,degrees Celsius,,,,,,,,,,,,,
2022-09-04 21:13:25,MCL003,49.517207,-114.680967,,13.27,degrees Celsius,,,,,,,,,,,,,
2022-09-04 22:13:25,MCL003,49.517207,-114.680967,,12.93,degrees Celsius,,,,,,,,,,,,,
2022-09-04 23:13:25,MCL003,49.517207,-114.680967,,12.65,degrees Celsius,,,,,,,,,,,,,
2022-09-05 00:13:25,MCL003,49.517207,-114.680967,,12.37,degrees Celsius,,,,,,,,,,,,,
2022-09-05 01:13:25,MCL003,49.517207,-114.680967,,12.15,degrees Celsius,,,,,,,,,,,,,
2022-09-05 02:13:25,MCL003,49.517207,-114.680967,,11.91,degrees Celsius,,,,,,,,,,,,,
2022-09-05 03:13:25,MCL003,49.517207,-114.680967,,11.72,degrees Celsius,,,,,,,,,,,,,
2022-09-05 04:13:25,MCL003,49.517207,-114.680967,,11.48,degrees Celsius,,,,,,,,,,,,,
2022-09-05 05:13:25,MCL003,49.517207,-114.680967,,11.22,degrees Celsius,,,,,,,,,,,,,
2022-09-05 06:13:25,MCL003,49.517207,-114.680967,,10.97,degrees Celsius,,,,,,,,,,,,,
2022-09-05 07:13:25,MCL003,49.517207,-114.680967,,10.8,degrees Celsius,,,,,,,,,,,,,
2022-09-05 08:13:25,MCL003,49.517207,-114.680967,,10.85,degrees Celsius,,,,,,,,,,,,,
2022-09-05 09:13:25,MCL003,49.517207,-114.680967,,11.27,degrees Celsius,,,,,,,,,,,,,
2022-09-05 10:13:25,MCL003,49.517207,-114.680967,,11.74,degrees Celsius,,,,,,,,,,,,,
2022-09-05 11:13:25,MCL003,49.517207,-114.680967,,12.61,degrees Celsius,,,,,,,,,,,,,
2022-09-05 12:13:25,MCL003,49.517207,-114.680967,,13.8,degrees Celsius,,,,,,,,,,,,,
2022-09-05 13:13:25,MCL003,49.517207,-114.680967,,14.78,degrees Celsius,,,,,,,,,,,,,
2022-09-05 14:13:25,MCL003,49.517207,-114.680967,,15.24,degrees Celsius,,,,,,,,,,,,,
2022-09-05 15:13:25,MCL003,49.517207,-114.680967,,15.15,degrees Celsius,,,,,,,,,,,,,
2022-09-05 16:13:25,MCL003,49.517207,-114.680967,,14.71,degrees Celsius,,,,,,,,,,,,,
2022-09-05 17:13:25,MCL003,49.517207,-114.680967,,14.36,degrees Celsius,,,,,,,,,,,,,
2022-09-05 18:13:25,MCL003,49.517207,-114.680967,,13.86,degrees Celsius,,,,,,,,,,,,,
2022-09-05 19:13:25,MCL003,49.517207,-114.680967,,13.39,degrees Celsius,,,,,,,,,,,,,
2022-09-05 20:13:25,MCL003,49.517207,-114.680967,,12.91,degrees Celsius,,,,,,,,,,,,,
2022-09-05 21:13:25,MCL003,49.517207,-114.680967,,12.55,degrees Celsius,,,,,,,,,,,,,
2022-09-05 22:13:25,MCL003,49.517207,-114.680967,,12.19,degrees Celsius,,,,,,,,,,,,,
2022-09-05 23:13:25,MCL003,49.517207,-114.680967,,11.88,degrees Celsius,,,,,,,,,,,,,
2022-09-06 00:13:25,MCL003,49.517207,-114.680967,,11.57,degrees Celsius,,,,,,,,,,,,,
2022-09-06 01:13:25,MCL003,49.517207,-114.680967,,11.27,degrees Celsius,,,,,,,,,,,,,
2022-09-06 02:13:25,MCL003,49.517207,-114.680967,,10.97,degrees Celsius,,,,,,,,,,,,,
2022-09-06 03:13:25,MCL003,49.517207,-114.680967,,10.7,degrees Celsius,,,,,,,,,,,,,
2022-09-06 04:13:25,MCL003,49.517207,-114.680967,,10.41,degrees Celsius,,,,,,,,,,,,,
2022-09-06 05:13:25,MCL003,49.517207,-114.680967,,10.15,degrees Celsius,,,,,,,,,,,,,
2022-09-06 06:13:25,MCL003,49.517207,-114.680967,,9.91,degrees Celsius,,,,,,,,,,,,,
2022-09-06 07:13:25,MCL003,49.517207,-114.680967,,9.72,degrees Celsius,,,,,,,,,,,,,
2022-09-06 08:13:25,MCL003,49.517207,-114.680967,,9.75,degrees Celsius,,,,,,,,,,,,,
2022-09-06 09:13:25,MCL003,49.517207,-114.680967,,10.19,degrees Celsius,,,,,,,,,,,,,
2022-09-06 10:13:25,MCL003,49.517207,-114.680967,,10.89,degrees Celsius,,,,,,,,,,,,,
2022-09-06 11:13:25,MCL003,49.517207,-114.680967,,11.89,degrees Celsius,,,,,,,,,,,,,
2022-09-06 12:13:25,MCL003,49.517207,-114.680967,,13.11,degrees Celsius,,,,,,,,,,,,,
2022-09-06 13:13:25,MCL003,49.517207,-114.680967,,14.29,degrees Celsius,,,,,,,,,,,,,
2022-09-06 14:13:25,MCL003,49.517207,-114.680967,,15.04,degrees Celsius,,,,,,,,,,,,,
2022-09-06 15:13:25,MCL003,49.517207,-114.680967,,15.11,degrees Celsius,,,,,,,,,,,,,
2022-09-06 16:13:25,MCL003,49.517207,-114.680967,,14.7,degrees Celsius,,,,,,,,,,,,,
2022-09-06 17:13:25,MCL003,49.517207,-114.680967,,14.38,degrees Celsius,,,,,,,,,,,,,
2022-09-06 18:13:25,MCL003,49.517207,-114.680967,,13.95,degrees Celsius,,,,,,,,,,,,,
2022-09-06 19:13:25,MCL003,49.517207,-114.680967,,13.38,degrees Celsius,,,,,,,,,,,,,
2022-09-06 20:13:25,MCL003,49.517207,-114.680967,,12.89,degrees Celsius,,,,,,,,,,,,,
2022-09-06 21:13:25,MCL003,49.517207,-114.680967,,12.41,degrees Celsius,,,,,,,,,,,,,
2022-09-06 22:13:25,MCL003,49.517207,-114.680967,,11.99,degrees Celsius,,,,,,,,,,,,,
2022-09-06 23:13:25,MCL003,49.517207,-114.680967,,11.61,degrees Celsius,,,,,,,,,,,,,
2022-09-07 00:13:25,MCL003,49.517207,-114.680967,,11.24,degrees Celsius,,,,,,,,,,,,,
2022-09-07 01:13:25,MCL003,49.517207,-114.680967,,10.95,degrees Celsius,,,,,,,,,,,,,
2022-09-07 02:13:25,MCL003,49.517207,-114.680967,,10.68,degrees Celsius,,,,,,,,,,,,,
2022-09-07 03:13:25,MCL003,49.517207,-114.680967,,10.43,degrees Celsius,,,,,,,,,,,,,
2022-09-07 04:13:25,MCL003,49.517207,-114.680967,,10.22,degrees Celsius,,,,,,,,,,,,,
2022-09-07 05:13:25,MCL003,49.517207,-114.680967,,10.04,degrees Celsius,,,,,,,,,,,,,
2022-09-07 06:13:25,MCL003,49.517207,-114.680967,,9.85,degrees Celsius,,,,,,,,,,,,,
2022-09-07 07:13:25,MCL003,49.517207,-114.680967,,9.75,degrees Celsius,,,,,,,,,,,,,
2022-09-07 08:13:25,MCL003,49.517207,-114.680967,,9.89,degrees Celsius,,,,,,,,,,,,,
2022-09-07 09:13:25,MCL003,49.517207,-114.680967,,10.44,degrees Celsius,,,,,,,,,,,,,
2022-09-07 10:13:25,MCL003,49.517207,-114.680967,,11.15,degrees Celsius,,,,,,,,,,,,,
2022-09-07 11:13:25,MCL003,49.517207,-114.680967,,12.19,degrees Celsius,,,,,,,,,,,,,
2022-09-07 12:13:25,MCL003,49.517207,-114.680967,,13.23,degrees Celsius,,,,,,,,,,,,,
2022-09-07 13:13:25,MCL003,49.517207,-114.680967,,13.67,degrees Celsius,,,,,,,,,,,,,
2022-09-07 14:13:25,MCL003,49.517207,-114.680967,,14.05,degrees Celsius,,,,,,,,,,,,,
2022-09-07 15:13:25,MCL003,49.517207,-114.680967,,14.2,degrees Celsius,,,,,,,,,,,,,
2022-09-07 16:13:25,MCL003,49.517207,-114.680967,,13.9,degrees Celsius,,,,,,,,,,,,,
2022-09-07 17:13:25,MCL003,49.517207,-114.680967,,13.76,degrees Celsius,,,,,,,,,,,,,
2022-09-07 18:13:25,MCL003,49.517207,-114.680967,,13.36,degrees Celsius,,,,,,,,,,,,,
2022-09-07 19:13:25,MCL003,49.517207,-114.680967,,13.03,degrees Celsius,,,,,,,,,,,,,
2022-09-07 20:13:25,MCL003,49.517207,-114.680967,,12.61,degrees Celsius,,,,,,,,,,,,,
2022-09-07 21:13:25,MCL003,49.517207,-114.680967,,12.21,degrees Celsius,,,,,,,,,,,,,
2022-09-07 22:13:25,MCL003,49.517207,-114.680967,,11.92,degrees Celsius,,,,,,,,,,,,,
2022-09-07 23:13:25,MCL003,49.517207,-114.680967,,11.59,degrees Celsius,,,,,,,,,,,,,
2022-09-08 00:13:25,MCL003,49.517207,-114.680967,,11.26,degrees Celsius,,,,,,,,,,,,,
2022-09-08 01:13:25,MCL003,49.517207,-114.680967,,10.99,degrees Celsius,,,,,,,,,,,,,
2022-09-08 02:13:25,MCL003,49.517207,-114.680967,,10.88,degrees Celsius,,,,,,,,,,,,,
2022-09-08 03:13:25,MCL003,49.517207,-114.680967,,10.75,degrees Celsius,,,,,,,,,,,,,
2022-09-08 04:13:25,MCL003,49.517207,-114.680967,,10.59,degrees Celsius,,,,,,,,,,,,,
2022-09-08 05:13:25,MCL003,49.517207,-114.680967,,10.4,degrees Celsius,,,,,,,,,,,,,
2022-09-08 06:13:25,MCL003,49.517207,-114.680967,,10.2,degrees Celsius,,,,,,,,,,,,,
2022-09-08 07:13:25,MCL003,49.517207,-114.680967,,10.01,degrees Celsius,,,,,,,,,,,,,
2022-09-08 08:13:25,MCL003,49.517207,-114.680967,,10.09,degrees Celsius,,,,,,,,,,,,,
2022-09-08 09:13:25,MCL003,49.517207,-114.680967,,10.4,degrees Celsius,,,,,,,,,,,,,
2022-09-08 10:13:25,MCL003,49.517207,-114.680967,,10.82,degrees Celsius,,,,,,,,,,,,,
2022-09-08 11:13:25,MCL003,49.517207,-114.680967,,10.95,degrees Celsius,,,,,,,,,,,,,
2022-09-08 12:13:25,MCL003,49.517207,-114.680967,,11.33,degrees Celsius,,,,,,,,,,,,,
2022-09-08 13:13:25,MCL003,49.517207,-114.680967,,12.04,degrees Celsius,,,,,,,,,,,,,
2022-09-08 14:13:25,MCL003,49.517207,-114.680967,,12.91,degrees Celsius,,,,,,,,,,,,,
2022-09-08 15:13:25,MCL003,49.517207,-114.680967,,13.11,degrees Celsius,,,,,,,,,,,,,
2022-09-08 16:13:25,MCL003,49.517207,-114.680967,,12.75,degrees Celsius,,,,,,,,,,,,,
2022-09-08 17:13:25,MCL003,49.517207,-114.680967,,12.5,degrees Celsius,,,,,,,,,,,,,
2022-09-08 18:13:25,MCL003,49.517207,-114.680967,,12.26,degrees Celsius,,,,,,,,,,,,,
2022-09-08 19:13:25,MCL003,49.517207,-114.680967,,11.85,degrees Celsius,,,,,,,,,,,,,
2022-09-08 20:13:25,MCL003,49.517207,-114.680967,,11.48,degrees Celsius,,,,,,,,,,,,,
2022-09-08 21:13:25,MCL003,49.517207,-114.680967,,11.18,degrees Celsius,,,,,,,,,,,,,
2022-09-08 22:13:25,MCL003,49.517207,-114.680967,,10.94,degrees Celsius,,,,,,,,,,,,,
2022-09-08 23:13:25,MCL003,49.517207,-114.680967,,10.72,degrees Celsius,,,,,,,,,,,,,
2022-09-09 00:13:25,MCL003,49.517207,-114.680967,,10.49,degrees Celsius,,,,,,,,,,,,,
2022-09-09 01:13:25,MCL003,49.517207,-114.680967,,10.34,degrees Celsius,,,,,,,,,,,,,
2022-09-09 02:13:25,MCL003,49.517207,-114.680967,,10.08,degrees Celsius,,,,,,,,,,,,,
2022-09-09 03:13:25,MCL003,49.517207,-114.680967,,9.88,degrees Celsius,,,,,,,,,,,,,
2022-09-09 04:13:25,MCL003,49.517207,-114.680967,,9.76,degrees Celsius,,,,,,,,,,,,,
2022-09-09 05:13:25,MCL003,49.517207,-114.680967,,9.65,degrees Celsius,,,,,,,,,,,,,
2022-09-09 06:13:25,MCL003,49.517207,-114.680967,,9.54,degrees Celsius,,,,,,,,,,,,,
2022-09-09 07:13:25,MCL003,49.517207,-114.680967,,9.46,degrees Celsius,,,,,,,,,,,,,
2022-09-09 08:13:25,MCL003,49.517207,-114.680967,,9.5,degrees Celsius,,,,,,,,,,,,,
2022-09-09 09:13:25,MCL003,49.517207,-114.680967,,9.7,degrees Celsius,,,,,,,,,,,,,
2022-09-09 10:13:25,MCL003,49.517207,-114.680967,,9.91,degrees Celsius,,,,,,,,,,,,,
2022-09-09 11:13:25,MCL003,49.517207,-114.680967,,10.59,degrees Celsius,,,,,,,,,,,,,
2022-09-09 12:13:25,MCL003,49.517207,-114.680967,,11.52,degrees Celsius,,,,,,,,,,,,,
2022-09-09 13:13:25,MCL003,49.517207,-114.680967,,11.94,degrees Celsius,,,,,,,,,,,,,
2022-09-09 14:13:25,MCL003,49.517207,-114.680967,,12.21,degrees Celsius,,,,,,,,,,,,,
2022-09-09 15:13:25,MCL003,49.517207,-114.680967,,12.59,degrees Celsius,,,,,,,,,,,,,
2022-09-09 16:13:25,MCL003,49.517207,-114.680967,,12.13,degrees Celsius,,,,,,,,,,,,,
2022-09-09 17:13:25,MCL003,49.517207,-114.680967,,11.82,degrees Celsius,,,,,,,,,,,,,
2022-09-09 18:13:25,MCL003,49.517207,-114.680967,,11.33,degrees Celsius,,,,,,,,,,,,,
2022-09-09 19:13:25,MCL003,49.517207,-114.680967,,10.87,degrees Celsius,,,,,,,,,,,,,
2022-09-09 20:13:25,MCL003,49.517207,-114.680967,,10.42,degrees Celsius,,,,,,,,,,,,,
2022-09-09 21:13:25,MCL003,49.517207,-114.680967,,10.04,degrees Celsius,,,,,,,,,,,,,
2022-09-09 22:13:25,MCL003,49.517207,-114.680967,,9.67,degrees Celsius,,,,,,,,,,,,,
2022-09-09 23:13:25,MCL003,49.517207,-114.680967,,9.3,degrees Celsius,,,,,,,,,,,,,
2022-09-10 00:13:25,MCL003,49.517207,-114.680967,,9.02,degrees Celsius,,,,,,,,,,,,,
2022-09-10 01:13:25,MCL003,49.517207,-114.680967,,8.76,degrees Celsius,,,,,,,,,,,,,
2022-09-10 02:13:25,MCL003,49.517207,-114.680967,,8.47,degrees Celsius,,,,,,,,,,,,,
2022-09-10 03:13:25,MCL003,49.517207,-114.680967,,8.28,degrees Celsius,,,,,,,,,,,,,
2022-09-10 04:13:25,MCL003,49.517207,-114.680967,,8.08,degrees Celsius,,,,,,,,,,,,,
2022-09-10 05:13:25,MCL003,49.517207,-114.680967,,7.92,degrees Celsius,,,,,,,,,,,,,
2022-09-10 06:13:25,MCL003,49.517207,-114.680967,,7.78,degrees Celsius,,,,,,,,,,,,,
2022-09-10 07:13:25,MCL003,49.517207,-114.680967,,7.67,degrees Celsius,,,,,,,,,,,,,
2022-09-10 08:13:25,MCL003,49.517207,-114.680967,,7.69,degrees Celsius,,,,,,,,,,,,,
2022-09-10 09:13:25,MCL003,49.517207,-114.680967,,8.11,degrees Celsius,,,,,,,,,,,,,
2022-09-10 10:13:25,MCL003,49.517207,-114.680967,,8.85,degrees Celsius,,,,,,,,,,,,,
2022-09-10 11:13:25,MCL003,49.517207,-114.680967,,9.85,degrees Celsius,,,,,,,,,,,,,
2022-09-10 12:13:25,MCL003,49.517207,-114.680967,,11.12,degrees Celsius,,,,,,,,,,,,,
2022-09-10 13:13:25,MCL003,49.517207,-114.680967,,12.4,degrees Celsius,,,,,,,,,,,,,
2022-09-10 14:13:25,MCL003,49.517207,-114.680967,,13.17,degrees Celsius,,,,,,,,,,,,,
2022-09-10 15:13:25,MCL003,49.517207,-114.680967,,13.25,degrees Celsius,,,,,,,,,,,,,
2022-09-10 16:13:25,MCL003,49.517207,-114.680967,,12.97,degrees Celsius,,,,,,,,,,,,,
2022-09-10 17:13:25,MCL003,49.517207,-114.680967,,12.79,degrees Celsius,,,,,,,,,,,,,
2022-09-10 18:13:25,MCL003,49.517207,-114.680967,,12.4,degrees Celsius,,,,,,,,,,,,,
2022-09-10 19:13:25,MCL003,49.517207,-114.680967,,11.89,degrees Celsius,,,,,,,,,,,,,
2022-09-10 20:13:25,MCL003,49.517207,-114.680967,,11.41,degrees Celsius,,,,,,,,,,,,,
2022-09-10 21:13:25,MCL003,49.517207,-114.680967,,10.96,degrees Celsius,,,,,,,,,,,,,
2022-09-10 22:13:25,MCL003,49.517207,-114.680967,,10.48,degrees Celsius,,,,,,,,,,,,,
2022-09-10 23:13:25,MCL003,49.517207,-114.680967,,10.09,degrees Celsius,,,,,,,,,,,,,
2022-09-11 00:13:25,MCL003,49.517207,-114.680967,,9.71,degrees Celsius,,,,,,,,,,,,,
2022-09-11 01:13:25,MCL003,49.517207,-114.680967,,9.44,degrees Celsius,,,,,,,,,,,,,
2022-09-11 02:13:25,MCL003,49.517207,-114.680967,,9.19,degrees Celsius,,,,,,,,,,,,,
2022-09-11 03:13:25,MCL003,49.517207,-114.680967,,8.95,degrees Celsius,,,,,,,,,,,,,
2022-09-11 04:13:25,MCL003,49.517207,-114.680967,,8.78,degrees Celsius,,,,,,,,,,,,,
2022-09-11 05:13:25,MCL003,49.517207,-114.680967,,8.6,degrees Celsius,,,,,,,,,,,,,
2022-09-11 06:13:25,MCL003,49.517207,-114.680967,,8.39,degrees Celsius,,,,,,,,,,,,,
2022-09-11 07:13:25,MCL003,49.517207,-114.680967,,8.32,degrees Celsius,,,,,,,,,,,,,
2022-09-11 08:13:25,MCL003,49.517207,-114.680967,,8.37,degrees Celsius,,,,,,,,,,,,,
2022-09-11 09:13:25,MCL003,49.517207,-114.680967,,8.83,degrees Celsius,,,,,,,,,,,,,
2022-09-11 10:13:25,MCL003,49.517207,-114.680967,,9.45,degrees Celsius,,,,,,,,,,,,,
2022-09-11 11:13:25,MCL003,49.517207,-114.680967,,10.25,degrees Celsius,,,,,,,,,,,,,
2022-09-11 12:13:25,MCL003,49.517207,-114.680967,,11.29,degrees Celsius,,,,,,,,,,,,,
2022-09-11 13:13:25,MCL003,49.517207,-114.680967,,12.23,degrees Celsius,,,,,,,,,,,,,
2022-09-11 14:13:25,MCL003,49.517207,-114.680967,,12.56,degrees Celsius,,,,,,,,,,,,,
2022-09-11 15:13:25,MCL003,49.517207,-114.680967,,12.76,degrees Celsius,,,,,,,,,,,,,
2022-09-11 16:13:25,MCL003,49.517207,-114.680967,,12.64,degrees Celsius,,,,,,,,,,,,,
2022-09-11 17:13:25,MCL003,49.517207,-114.680967,,12.4,degrees Celsius,,,,,,,,,,,,,
2022-09-11 18:13:25,MCL003,49.517207,-114.680967,,12,degrees Celsius,,,,,,,,,,,,,
2022-09-11 19:13:25,MCL003,49.517207,-114.680967,,11.57,degrees Celsius,,,,,,,,,,,,,
2022-09-11 20:13:25,MCL003,49.517207,-114.680967,,11.22,degrees Celsius,,,,,,,,,,,,,
2022-09-11 21:13:25,MCL003,49.517207,-114.680967,,10.89,degrees Celsius,,,,,,,,,,,,,
2022-09-11 22:13:25,MCL003,49.517207,-114.680967,,10.6,degrees Celsius,,,,,,,,,,,,,
2022-09-11 23:13:25,MCL003,49.517207,-114.680967,,10.38,degrees Celsius,,,,,,,,,,,,,
2022-09-12 00:13:25,MCL003,49.517207,-114.680967,,10.13,degrees Celsius,,,,,,,,,,,,,
2022-09-12 01:13:25,MCL003,49.517207,-114.680967,,9.88,degrees Celsius,,,,,,,,,,,,,
2022-09-12 02:13:25,MCL003,49.517207,-114.680967,,9.64,degrees Celsius,,,,,,,,,,,,,